Change the Weather History Date:

Wednesday, May 14, 2014

  Actual Average Record
Temperature  
Mean Temperature 62 °F -  
Max Temperature 73 °F 69 °F 81 °F (2004)
Min Temperature 53 °F 48 °F 39 °F (2013)
Degree Days  
Heating Degree Days 3    
Growing Degree Days 12 (Base 50)    
Moisture  
Dew Point 52 °F    
Average Humidity 73    
Maximum Humidity 88    
Minimum Humidity 60    
Precipitation  
Precipitation 0.00 in - - ()
Sea Level Pressure  
Sea Level Pressure 30.26 in    
Wind  
Wind Speed 6 mph (ESE)    
Max Wind Speed 12 mph    
Max Gust Speed 18 mph    
Visibility 8 miles    
Events      
Averages and records for this station are not official NWS values.
T = Trace of Precipitation, MM = Missing Value Source: NWS Daily Summary

Daily Weather History Graph

Daily Weather History Graph

Search for Another Location

Airport or City:

Trip Planner

Search our weather history database for the weather conditions in past years. The results will help you decide how hot, cold, wet, or windy it might be!

Date:

Astronomy

May. 14, 2014 Rise Set
Actual Time 5:39 AM EDT 8:05 PM EDT
Civil Twilight 5:08 AM EDT 8:37 PM EDT
Nautical Twilight 4:30 AM EDT 9:15 PM EDT
Astronomical Twilight 3:47 AM EDT 9:58 PM EDT
Moon 8:08 PM EDT (5/14) 5:36 AM EDT (5/14)
Length of Visible Light 15h 28m
Length of Day
14h 26m
Full, 100% of the Moon is Illuminated
May 14
Full
May 14
Full
May 21
Last Quarter
May 28
New
Jun 5
First Quarter

Hourly Weather History & Observations

Time (EDT) Temp. Dew Point Humidity Pressure Visibility Wind Dir Wind Speed Gust Speed Precip Events Conditions
12:51 AM 55.9 °F 44.1 °F 64% 30.28 in 10.0 mi ESE 8.1 mph - N/A   Clear
1:51 AM 55.0 °F 45.0 °F 69% 30.27 in 10.0 mi ESE 4.6 mph - N/A   Clear
2:51 AM 54.0 °F 45.0 °F 72% 30.26 in 10.0 mi ESE 3.5 mph - N/A   Clear
3:51 AM 54.0 °F 44.1 °F 69% 30.26 in 10.0 mi East 4.6 mph - N/A   Mostly Cloudy
4:51 AM 54.0 °F 45.0 °F 72% 30.28 in 10.0 mi NE 5.8 mph - N/A   Overcast
5:51 AM 54.0 °F 45.0 °F 72% 30.29 in 10.0 mi ENE 6.9 mph - N/A   Overcast
6:51 AM 54.0 °F 45.0 °F 72% 30.30 in 10.0 mi ENE 5.8 mph - N/A   Overcast
7:08 AM 53.6 °F 44.6 °F 72% 30.30 in 10.0 mi Variable 5.8 mph - N/A   Overcast
7:26 AM 53.6 °F 46.4 °F 77% 30.31 in 10.0 mi East 4.6 mph - N/A   Overcast
7:51 AM 55.0 °F 46.9 °F 74% 30.31 in 10.0 mi ENE 3.5 mph - N/A   Overcast
8:51 AM 55.9 °F 48.0 °F 75% 30.31 in 10.0 mi Calm Calm - N/A   Overcast
9:51 AM 57.0 °F 48.9 °F 74% 30.31 in 10.0 mi Variable 3.5 mph - N/A   Overcast
11:51 AM 64.9 °F 52.0 °F 63% 30.28 in 10.0 mi Variable 4.6 mph - N/A   Overcast
12:51 PM 68.0 °F 53.6 °F 60% 30.27 in 10.0 mi Variable 6.9 mph - N/A   Clear
1:51 PM 70.0 °F 55.9 °F 61% 30.24 in 10.0 mi South 6.9 mph 17.3 mph N/A   Partly Cloudy
2:06 PM 71.6 °F 57.2 °F 60% 30.24 in 10.0 mi South 10.4 mph - N/A   Mostly Cloudy
2:51 PM 69.1 °F 57.9 °F 68% 30.24 in 10.0 mi South 11.5 mph - N/A   Overcast
3:51 PM 68.0 °F 57.0 °F 68% 30.24 in 10.0 mi SSW 8.1 mph - N/A   Overcast
4:51 PM 66.2 °F 55.4 °F 68% 30.23 in 8.0 mi South 8.1 mph - N/A   Overcast
5:51 PM 68.0 °F 57.0 °F 68% 30.23 in 8.0 mi South 6.9 mph - N/A   Overcast
6:51 PM 66.9 °F 55.9 °F 68% 30.24 in 7.0 mi SE 6.9 mph - N/A   Overcast
7:39 PM 64.4 °F 57.2 °F 77% 30.23 in 7.0 mi ESE 10.4 mph 18.4 mph N/A   Overcast
7:51 PM 64.0 °F 57.0 °F 78% 30.24 in 5.0 mi SE 4.6 mph - N/A   Overcast
8:51 PM 63.0 °F 57.9 °F 84% 30.25 in 2.5 mi East 4.6 mph - 0.00 in   Light Drizzle
9:51 PM 62.1 °F 57.9 °F 86% 30.25 in 2.5 mi East 4.6 mph - 0.00 in   Light Drizzle
10:05 PM 62.6 °F 59.0 °F 88% 30.24 in 2.5 mi East 3.5 mph - 0.00 in   Light Drizzle
10:51 PM 62.6 °F 57.2 °F 82% 30.25 in 2.5 mi ENE 3.5 mph - N/A   Light Drizzle
11:35 PM 62.6 °F 57.2 °F 82% 30.24 in 2.5 mi Calm Calm - 0.00 in   Light Drizzle
11:51 PM 62.1 °F 57.9 °F 86% 30.24 in 2.5 mi Calm Calm - 0.00 in   Light Drizzle
11:58 PM 62.6 °F 57.2 °F 82% 30.24 in 6.0 mi ENE 4.6 mph - 0.00 in   Overcast